Location: Newark
(55.7083°N, 13.1992°E)
Time: 23:33:07
(UTC+00:00)

Envisat - Pass Details

Date: 08 October 2022
Orbit: 763 x 765 km, 98.2° (Epoch: 09 December)

Event Time Altitude Azimuth Distance (km) Brightness Sun altitude
Rises 02:28:47 0° 22° (NNE) 3,249 7.0 -24.7°
Reaches altitude 10° 02:31:32 10° 36° (NE) 2,317 6.3 -24.3°
Maximum altitude 02:35:39 24° 90° (E) 1,545 5.2 -23.8°
Drops below altitude 10° 02:39:45 10° 144° (SE) 2,302 5.6 -23.3°
Sets 02:42:28 0° 158° (SSE) 3,223 6.2 -23.0°
